Regional Weather Roundup
Issued by NWS

Home | Current Version | Previous Version | Text Only | Print | Product List | Glossary On
Versions: 1 2 3 4 5 6 7 8 9 10 11 12 13 14 15 16 17 18 19 20 21 22 23 24 25 26 27 28 29 30 31 32 33 34 35 36 37 38 39 40 41 42 43 44 45 46 47 48 49 50
000
ASUS43 KDMX 221207
RWRIA

WEATHER ROUNDUP FOR IOWA
NATIONAL WEATHER SERVICE DES MOINES IA
600 AM CST MON DEC 22 2014

NOTE: "FAIR" INDICATES FEW OR NO CLOUDS BELOW 12,000 FEET WITH NO
SIGNIFICANT WEATHER AND/OR OBSTRUCTIONS TO VISIBILITY.

* - THESE STATIONS ARE NOT NWS STATIONS...THUS NOT UNDER NWS
QUALITY CONTROL.  THEY ALSO DO NOT REPORT WEATHER SUCH
AS PRECIPITATION OR FOG.

IAZ001>003-012>014-020>022-031>034-043>046-221300-
   NORTHWEST IOWA

CITY           SKY/WX    TMP DP  RH WIND       PRES   REMARKS
CARROLL *      CLOUDY    39  39 100 S16       29.58F FOG     WCI  30
CHEROKEE *     LGT RAIN  40  40 100 SE10      29.54S WCI  34
DENISON *      CLOUDY    41  41 100 S17       29.53F FOG
LE MARS *      MIX PCPN  43  41  93 SE15      29.50F
ORANGE CITY *  DRIZZLE   41  39  93 SE9       29.50F
SHELDON *      CLOUDY    39  39 100 S14G20    29.50F FOG     WCI  31
SIOUX CITY     LGT RAIN  43  41  93 S10       29.51F
6HR MIN TEMP:  42; 6HR MAX TEMP:  43; 6HR PCP:  0.10;

SPENCER        LGT RAIN  40  38  93 SE14      29.55F FOG     WCI  32
6HR MIN TEMP:  40; 6HR MAX TEMP:  40; 6HR PCP:  0.01;

STORM LAKE *   CLOUDY    39  39 100 S16       29.55F FOG     WCI  30
$$

IAZ055>058-069>071-079>083-090>094-221300-
   SOUTHWEST IOWA

CITY           SKY/WX    TMP DP  RH WIND       PRES   REMARKS
ATLANTIC *     CLOUDY    41  41 100 S10G21    29.58S FOG
AUDUBON *      CLOUDY    39  36  87 S10G17    29.59S HAZE    WCI  32
CLARINDA *     MIX PCPN  41  39  93 SE8       29.61S
COUNCIL BLFS * CLOUDY    41  41 100 S13       29.54S FOG
CRESTON *      CLOUDY    39  39 100 SE14      29.61F FOG     WCI  31
HARLAN  *      CLOUDY    41  41 100 S15G21    29.59F FOG
LAMONI         CLOUDY    39  37  92 SE10      29.64F WCI  32
6HR MIN TEMP:  39; 6HR MAX TEMP:  40; 6HR PCP: TRACE;

RED OAK *      CLOUDY    41  41 100 S9G17     29.58F FOG
SHENANDOAH *   MIX PCPN  41  41 100 SE9       29.59S
$$

IAZ047>049-059>061-072>074-084-221300-
   CENTRAL IOWA

CITY           SKY/WX    TMP DP  RH WIND       PRES   REMARKS
AMES           CLOUDY    38  36  92 SE14      29.65F FOG     WCI  30
6HR MIN TEMP:  38; 6HR MAX TEMP:  41; 6HR PCP:  0.04;

ANKENY *       CLOUDY    39  39 100 SE10G17   29.66F WCI  32
CHARITON *     CLOUDY    39  37  93 SE10      29.67S WCI  32
DES MOINES     LGT RAIN  41  37  86 SE13      29.66F
6HR MIN TEMP:  41; 6HR MAX TEMP:  43; 6HR PCP:  0.04;

GRINNELL*      CLOUDY    37  36  93 SE13      29.70F WCI  29
KNOXVILLE *    CLOUDY    39  36  87 SE13      29.67S WCI  32
MARSHALLTOWN   CLOUDY    37  35  92 SE13      29.68F FOG     WCI  29
6HR MIN TEMP:  37; 6HR MAX TEMP:  39; 6HR PCP: TRACE;

PELLA *        CLOUDY    39  36  89 SE10      29.71S WCI  32
PERRY *        DRIZZLE   39  39 100 SE14      29.62F WCI  31
$$

IAZ004>006-015-016-023>025-035-036-221300-
   NORTH CENTRAL IOWA

CITY           SKY/WX    TMP DP  RH WIND       PRES   REMARKS
ALGONA *       FOG       39  39 100 SE15G23   29.61S VSB 3/4 WCI  31
CLARION *      MIX PCPN  37  37 100 SE15G22   29.64S WCI  28
ESTHERVILLE    CLOUDY    38  38 100 S20G25    29.57S FOG     WCI  28
6HR MIN TEMP:  38; 6HR MAX TEMP:  39; 6HR PCP: TRACE;

FORT DODGE *   CLOUDY    39  36  87 S9        29.62F WCI  33
MASON CITY     CLOUDY    36  36 100 SE17      29.67F FOG     WCI  26
6HR MIN TEMP:  36; 6HR MAX TEMP:  38; 6HR PCP:  0.04;

FOREST CITY *  CLOUDY    37  36  93 SE16      29.64F FOG     WCI  28
IOWA FALLS *   CLOUDY    37  36  96 SE14      29.67F FOG     WCI  28
$$

IAZ007>011-017>019-026>030-037>042-050>054-066-221300-
   NORTHEAST IOWA

CITY           SKY/WX    TMP DP  RH WIND       PRES   REMARKS
CEDAR RAPIDS   CLOUDY    36  34  92 SE9G20    29.74F WCI  29
6HR MIN TEMP:  36; 6HR MAX TEMP:  36; 6HR PCP: TRACE;

CHARLES CITY * CLOUDY    36  36 100 SE16      29.70S FOG     WCI  26
CLINTON *      CLOUDY    36  30  80 SE15      29.85S WCI  26
DECORAH *      CLOUDY    34  34 100 SE12G17   29.74S FOG     WCI  25
DUBUQUE        CLOUDY    33  30  88 SE16      29.79F FOG     WCI  23
6HR MIN TEMP:  33; 6HR MAX TEMP:  33; 6HR PCP: TRACE;

MONTICELLO *   CLOUDY    36  36 100 SE10G16   29.78S WCI  28
OELWEIN *      CLOUDY    34  34 100 SE15G21   29.74S FOG     WCI  24
WATERLOO       CLOUDY    36  34  92 SE12      29.71F FOG     WCI  28
6HR MIN TEMP:  36; 6HR MAX TEMP:  37; 6HR PCP:  0.01;

$$

IAZ064-065-067-068-078-221300-
   EAST CENTRAL IOWA

CITY           SKY/WX    TMP DP  RH WIND       PRES   REMARKS
DAVENPORT      CLOUDY    36  30  79 SE14      29.81F WCI  27
6HR MIN TEMP:  35; 6HR MAX TEMP:  36; 6HR PCP: TRACE;

IOWA CITY      CLOUDY    37  33  85 SE10      29.78F WCI  30
6HR MIN TEMP:  36; 6HR MAX TEMP:  37;

MT. PLEASANT * CLOUDY    38  32  78 SE10      29.76F WCI  31
MUSCATINE *    CLOUDY    39  32  75 SE13      29.79F WCI  32
QUAD CITIES    CLOUDY    36  31  82 SE10      29.82S WCI  28
6HR MIN TEMP:  35; 6HR MAX TEMP:  37; 6HR PCP: TRACE;

$$

IAZ062-063-075>077-085>089-095>099-221300-
   SOUTHEAST IOWA

CITY           SKY/WX    TMP DP  RH WIND       PRES   REMARKS
BURLINGTON     LGT RAIN  39  32  76 SE12      29.77F WCI  32
6HR MIN TEMP:  39; 6HR MAX TEMP:  40; 6HR PCP: TRACE;

FAIRFIELD *    CLOUDY    37  34  87 SE13      29.74F WCI  29
FORT MADISON * CLOUDY    41  36  81 SE8       29.77F
KEOKUK *       CLOUDY    39  34  81 SE10G17   29.75F WCI  32
OSKALOOSA *    CLOUDY    37  35  90 SE13      29.71F WCI  29
CENTERVILLE *  CLOUDY    37  37 100 SE10      29.70F WCI  30
OTTUMWA        CLOUDY    39  34  82 SE15      29.71F WCI  31
6HR MIN TEMP:  39; 6HR MAX TEMP:  40;

WASHINGTON *   CLOUDY    39  37  93 SE14G20   29.75F WCI  31
$$

ABBREVIATIONS USED IN REMARKS
   TC - TEMPERATURES IN CELSIUS
  WCI - WIND CHILL INDEX
   HX - HEAT INDEX
  VSB - VISIBILITY
$$



USA.gov is the U.S. government's official web portal to all federal, state and local government web resources and services.